Location: Unspecified
(17.6330°N, 0.0000°E)
Time: 17:17:44
(UTC+00:00)

S-56A Canister/Altair - Pass Details

Date: 26 June 2019
Orbit: 632 x 2500 km, 38.9° (Epoch: 20 July)

Event Time Altitude Azimuth Distance (km) Brightness Sun altitude
Rises 13:11:03 0° 243° (WSW) 6,140 12.3 73.1°
Reaches altitude 10° 13:15:20 10° 246° (WSW) 5,040 12.0 72.1°
Maximum altitude 13:29:15 61° 324° (NW) 2,174 11.8 69.0°
Drops below altitude 10° 13:39:06 10° 44° (NE) 3,659 11.0 66.8°
Sets 13:41:45 0° 48° (NE) 4,411 11.3 66.2°
